Location: Battery Park City
(40.7115°N, 74.0163°W)
Time: 00:41:39
(UTC+00:00)

Cosmos 2251 Rocket - Pass Details

Date: 08 December 2019
Orbit: 765 x 791 km, 74.0° (Epoch: 20 January)

Event Time Altitude Azimuth Distance (km) Brightness Sun altitude
Rises 21:50:01 0° 180° (S) 3,257 7.1 -4.4°
Reaches altitude 10° 21:52:29 10° 173° (S) 2,329 6.3 -4.8°
Maximum altitude 21:57:29 44° 103° (ESE) 1,068 4.0 -5.7°
Drops below altitude 10° 22:02:28 10° 32° (NNE) 2,328 5.5 -6.6°
Enters shadow 22:04:45 - 27° (NNE) 3,187 6.2 -7.0°
